Terminal Aerodrome Forecast
Issued by NWS Paducah, KY

Home | Current Version | Previous Version | Text Only | Print | Product List | Glossary On
Versions: 1 2 3 4 5 6 7 8 9 10 11 12
000
FTUS43 KPAH 042320
TAFPAH
TAF
KPAH 042320Z 0500/0524 19004KT P6SM SCT250
     FM051500 20009G18KT P6SM SCT035 BKN070=

USA.gov is the U.S. government's official web portal to all federal, state and local government web resources and services.